GW0187 Weather Reports


time (UTC)temp
C
wind
direction
speed
KPH
gust
KPH
rain 1hr
cm
rain 24hr
cm
rain mn
cm
humidity
%
barometer
mb
20260902003103 28 224 4.8 14.5 0.00 0.00 0.00 32 1012.8
20260902001612 27 195 4.8 14.5 0.00 0.00 0.00 30 1012.8
20260902000055 27 239 1.6 12.9 0.00 0.00 0.00 31 1012.9
20260901234551 27 243 3.2 16.1 0.00 0.00 0.00 32 1013.0
20260901233100 27 290 3.2 14.5 0.00 0.00 0.00 30 1013.1
20260901231559 27 227 3.2 16.1 0.00 0.00 0.00 31 1013.2
20260901230104 27 244 3.2 19.3 0.00 0.00 0.00 32 1013.5
20260901224611 27 165 6.4 19.3 0.00 0.00 0.00 32 1013.5
20260901223056 27 228 6.4 17.7 0.00 0.00 0.00 33 1013.7
20260901221601 27 213 6.4 19.3 0.00 0.00 0.00 33 1013.8
20260901220055 27 263 3.2 17.7 0.00 0.00 0.00 33 1013.9
20260901214602 27 230 1.6 16.1 0.00 0.00 0.00 32 1014.2
20260901213116 27 306 4.8 16.1 0.00 0.00 0.00 33 1014.1
20260901211553 26 250 6.4 17.7 0.00 0.00 0.00 34 1014.3
20260901210116 26 295 3.2 11.3 0.00 0.00 0.00 33 1014.3
20260901204555 25 213 6.4 14.5 0.00 0.00 0.00 35 1014.6
20260901203055 25 236 6.4 17.7 0.00 0.00 0.00 35 1014.8
20260901201559 25 265 6.4 16.1 0.00 0.00 0.00 36 1014.9
20260901200111 25 194 8.0 16.1 0.00 0.00 0.00 38 1015.0
20260901194558 25 251 3.2 14.5 0.00 0.00 0.00 40 1015.2
20260901193057 25 344 4.8 16.1 0.00 0.00 0.00 42 1015.4
20260901191602 24 117 6.4 16.1 0.00 0.00 0.00 39 1015.6
20260901190104 24 0 4.8 14.5 0.00 0.00 0.00 44 1015.6